Lid_Strength_Index
-1 -1 -1 -0 1 2 2 2 2 2 2 2 2 1 0 -0 -0 1 4 2 1 -3 -2 1 2 3 3 4 3 5 10 11 10 9 8 6 7 6 7 7 7 7 7 4 2
-0 -0 -1 -1 -1 -0 1 2 2 2 2 2 2 1 1 0 3 4 -0 -2 -2 -3 2 3 4 4 5 5 5 7 10 10 8 7 7 6 7 7 8 8 8 7 5 3 3
-1 -1 -1 -1 -1 -1 -1 0 2 2 2 2 2 1 1 1 5 5 -2 -2 -2 -1 2 2 2 4 6 5 6 7 10 7 7 6 6 7 7 6 8 8 6 7 6 4 4
-1 -1 -1 -1 -1 -1 -1 -1 -0 1 2 2 2 1 1 3 11 4 -2 -2 -2 -0 2 4 4 6 7 8 5 8 6 6 6 5 6 7 6 7 6 7 6 6 5 4 4
-1 -1 -1 -1 -1 -1 -1 -1 -1 -1 0 1 1 1 3 6 7 1 -2 -2 -0 1 4 4 5 6 8 7 6 8 8 6 6 6 6 6 7 7 7 6 5 6 6 5 4
-1 -1 -1 -1 -1 -1 -1 -1 -1 -1 -1 -1 0 1 5 9 3 1 -0 0 1 2 4 4 4 4 6 7 8 7 7 7 6 6 5 7 7 7 6 6 6 6 7 6 5
-1 -1 -1 -1 -1 -1 -1 -1 -1 -1 -1 -1 -1 0 5 7 2 1 0 1 1 2 4 3 4 5 6 8 6 7 10 8 8 7 8 8 10 9 7 6 7 7 7 6 6
-1 -1 -1 -1 -1 -1 -1 -1 -1 -1 -1 -1 -0 1 7 2 -1 1 0 2 1 1 2 3 2 4 6 7 6 9 10 12 8 8 8 8 12 8 7 7 8 7 7 7 6
0 -0 -0 -0 -1 -1 -1 -1 -1 -1 -1 -1 2 3 7 1 3 1 1 3 2 2 2 2 4 7 8 10 10 9 14 12 10 7 8 9 10 7 7 7 9 8 8 7 7
1 2 2 0 -0 0 -0 -0 -0 0 1 1 3 7 5 6 3 2 1 2 4 4 5 5 7 10 10 11 15 12 13 12 12 9 9 10 10 8 8 9 9 9 10 9 8
1 1 1 0 1 0 1 2 5 7 6 6 7 7 6 3 1 3 2 3 4 5 10 7 10 13 12 9 8 9 11 12 11 9 10 11 11 10 10 10 10 10 10 9 9
2 2 2 1 1 1 2 5 5 4 9 4 5 5 3 3 7 5 2 7 8 11 8 9 12 10 10 7 8 9 11 12 10 8 10 11 11 11 11 11 10 10 9 9 8
3 2 2 2 2 2 3 5 2 3 9 7 5 6 5 4 7 7 4 6 9 11 10 12 11 9 8 9 10 10 11 12 12 10 9 11 12 12 11 9 9 9 8 8 8
3 3 2 2 4 3 4 3 3 3 12 11 9 6 5 5 8 4 4 6 8 11 10 11 9 9 9 9 9 12 9 9 10 11 15 11 16 13 11 10 10 10 9 8 7
3 3 3 3 4 5 3 3 3 5 20 10 9 3 5 8 8 8 4 7 11 10 11 12 11 9 10 9 8 10 8 10 10 12 13 12 15 14 11 11 10 9 8 7 7
3 3 4 4 4 3 3 4 4 14 20 12 9 9 9 8 8 8 7 6 8 10 10 10 8 7 8 8 7 8 10 10 11 12 16 14 14 15 12 10 9 8 7 7 7
3 3 4 4 5 3 4 5 14 18 11 13 12 10 10 11 10 8 10 11 12 14 13 10 9 9 8 10 9 10 12 17 18 18 17 14 14 13 10 8 8 8 7 7 7
4 4 4 3 3 4 4 10 17 14 13 10 10 10 12 10 10 9 11 11 8 9 11 14 15 10 9 10 11 11 12 16 21 19 16 14 16 12 10 9 8 7 7 7 7
4 3 3 2 3 4 7 14 15 12 10 11 11 13 13 11 11 11 10 11 9 9 13 13 13 10 9 10 11 11 14 12 14 14 17 14 12 11 10 10 10 9 8 8 8
5 4 3 2 2 4 9 13 11 9 8 9 14 12 15 13 12 12 11 9 10 8 8 11 14 10 10 10 11 13 11 14 13 19 20 16 15 14 12 12 10 10 10 9 9
4 6 3 1 1 7 12 11 10 7 7 10 11 12 12 13 11 12 11 9 8 9 8 9 12 13 11 12 12 13 13 13 13 14 18 18 16 12 12 11 11 10 9 9 9
4 9 2 2 8 8 11 9 8 8 6 8 8 9 10 10 11 11 12 10 7 8 11 9 12 15 13 11 10 12 12 12 16 16 16 18 17 11 11 10 9 9 8 9 8
6 6 2 2 11 11 8 9 8 8 8 8 9 8 8 10 13 11 10 8 7 8 10 9 12 16 16 13 11 12 11 12 13 13 16 18 16 10 10 9 8 9 8 8 8
6 9 6 5 6 8 9 10 10 8 8 8 8 8 9 11 9 12 11 9 8 8 8 8 11 14 16 15 13 14 12 12 13 15 15 14 13 11 10 10 9 9 8 9 8
6 9 8 10 9 9 8 9 10 10 8 8 9 9 10 12 11 11 10 10 9 9 9 10 13 13 13 13 13 13 12 12 13 12 15 13 13 10 10 10 9 9 9 9 9
7 8 8 9 9 10 10 10 10 10 10 10 10 9 9 11 10 12 10 10 10 10 10 10 13 13 15 13 14 14 13 13 12 12 12 12 12 9 9 10 9 10 8 8 8
5 5 7 10 10 11 11 11 10 9 9 8 8 9 10 10 9 9 8 8 8 10 10 11 13 14 16 13 14 15 13 13 13 12 13 14 11 10 10 9 9 8 8 8 9